Year,Month,Day,Hour,Minute,Value (Times are PST for windgust in km/hr)
2012,03,11,00,01,1.60
2012,03,11,00,07,1.60
2012,03,11,00,08,3.20
2012,03,11,00,09,3.20
2012,03,11,00,10,1.60
2012,03,11,00,14,1.60
2012,03,11,00,18,1.60
2012,03,11,00,19,4.80
2012,03,11,00,20,3.20
2012,03,11,00,22,1.60
2012,03,11,00,23,1.60
2012,03,11,00,24,1.60
2012,03,11,00,25,1.60
2012,03,11,00,27,1.60
2012,03,11,00,28,1.60
2012,03,11,00,29,4.80
2012,03,11,00,30,3.20
2012,03,11,00,32,1.60
2012,03,11,00,34,1.60
2012,03,11,00,35,3.20
2012,03,11,00,36,4.80
2012,03,11,00,37,1.60
2012,03,11,00,38,1.60
2012,03,11,00,39,1.60
2012,03,11,00,40,1.60
2012,03,11,00,41,1.60
2012,03,11,00,42,6.40
2012,03,11,00,43,6.40
2012,03,11,00,44,1.60
2012,03,11,00,47,1.60
2012,03,11,00,48,3.20
2012,03,11,00,50,4.80
2012,03,11,00,51,3.20
2012,03,11,00,54,3.20
2012,03,11,00,55,3.20
2012,03,11,00,56,1.60
2012,03,11,00,57,1.60
2012,03,11,00,58,1.60
2012,03,11,00,59,3.20
2012,03,11,01,00,3.20
2012,03,11,01,01,3.20
2012,03,11,01,02,1.60
2012,03,11,01,03,1.60
2012,03,11,01,11,1.60
2012,03,11,01,13,1.60
2012,03,11,01,14,1.60
2012,03,11,01,15,6.40
2012,03,11,01,16,1.60
2012,03,11,01,17,3.20
2012,03,11,01,24,1.60
2012,03,11,01,36,1.60
2012,03,11,01,42,1.60
2012,03,11,01,45,1.60
2012,03,11,01,53,4.80
2012,03,11,01,54,1.60
2012,03,11,01,56,3.20
2012,03,11,03,20,1.60
2012,03,11,03,26,1.60
2012,03,11,03,27,3.20
2012,03,11,03,29,1.60
2012,03,11,03,35,1.60
2012,03,11,03,36,1.60
2012,03,11,03,46,3.20
2012,03,11,03,47,1.60
2012,03,11,03,48,1.60
2012,03,11,03,49,3.20
2012,03,11,03,50,1.60
2012,03,11,03,52,6.40
2012,03,11,03,53,6.40
2012,03,11,03,54,4.80
2012,03,11,03,55,6.40
2012,03,11,03,56,6.40
2012,03,11,03,57,6.40
2012,03,11,03,58,3.20
2012,03,11,03,59,3.20
2012,03,11,04,00,8.10
2012,03,11,04,01,3.20
2012,03,11,04,02,6.40
2012,03,11,04,03,4.80
2012,03,11,04,04,3.20
2012,03,11,04,05,1.60
2012,03,11,04,06,8.10
2012,03,11,04,07,8.10
2012,03,11,04,08,6.40
2012,03,11,04,09,3.20
2012,03,11,04,10,4.80
2012,03,11,04,11,4.80
2012,03,11,04,12,4.80
2012,03,11,04,13,4.80
2012,03,11,04,14,4.80
2012,03,11,04,15,6.40
2012,03,11,04,16,4.80
2012,03,11,04,17,6.40
2012,03,11,04,18,4.80
2012,03,11,04,19,3.20
2012,03,11,04,20,3.20
2012,03,11,04,21,3.20
2012,03,11,04,22,6.40
2012,03,11,04,23,6.40
2012,03,11,04,24,3.20
2012,03,11,04,25,6.40
2012,03,11,04,26,8.10
2012,03,11,04,27,16.10
2012,03,11,04,28,11.30
2012,03,11,04,29,4.80
2012,03,11,04,30,4.80
2012,03,11,04,31,4.80
2012,03,11,04,32,4.80
2012,03,11,04,33,6.40
2012,03,11,04,34,4.80
2012,03,11,04,35,6.40
2012,03,11,04,36,9.60
2012,03,11,04,37,16.10
2012,03,11,04,38,6.40
2012,03,11,04,39,9.60
2012,03,11,04,40,6.40
2012,03,11,04,41,6.40
2012,03,11,04,42,6.40
2012,03,11,04,43,16.10
2012,03,11,04,44,9.60
2012,03,11,04,45,6.40
2012,03,11,04,46,6.40
2012,03,11,04,47,8.10
2012,03,11,04,48,8.10
2012,03,11,04,49,11.30
2012,03,11,04,50,16.10
2012,03,11,04,51,11.30
2012,03,11,04,52,14.50
2012,03,11,04,53,11.30
2012,03,11,04,54,9.60
2012,03,11,04,55,6.40
2012,03,11,04,56,4.80
2012,03,11,04,57,3.20
2012,03,11,04,58,8.10
2012,03,11,04,59,3.20
2012,03,11,05,00,4.80
2012,03,11,05,01,4.80
2012,03,11,05,02,4.80
2012,03,11,05,03,9.60
2012,03,11,05,04,11.30
2012,03,11,05,05,12.90
2012,03,11,05,06,8.10
2012,03,11,05,07,8.10
2012,03,11,05,08,16.10
2012,03,11,05,09,9.60
2012,03,11,05,10,6.40
2012,03,11,05,11,4.80
2012,03,11,05,12,8.10
2012,03,11,05,13,3.20
2012,03,11,05,14,6.40
2012,03,11,05,15,4.80
2012,03,11,05,16,14.50
2012,03,11,05,17,11.30
2012,03,11,05,18,9.60
2012,03,11,05,19,4.80
2012,03,11,05,20,9.60
2012,03,11,05,21,11.30
2012,03,11,05,22,9.60
2012,03,11,05,23,9.60
2012,03,11,05,24,9.60
2012,03,11,05,25,8.10
2012,03,11,05,26,6.40
2012,03,11,05,27,4.80
2012,03,11,05,28,14.50
2012,03,11,05,29,11.30
2012,03,11,05,30,8.10
2012,03,11,05,31,19.30
2012,03,11,05,32,14.50
2012,03,11,05,33,9.60
2012,03,11,05,34,11.30
2012,03,11,05,35,14.50
2012,03,11,05,36,9.60
2012,03,11,05,37,16.10
2012,03,11,05,38,12.90
2012,03,11,05,39,6.40
2012,03,11,05,40,8.10
2012,03,11,05,41,9.60
2012,03,11,05,42,8.10
2012,03,11,05,43,4.80
2012,03,11,05,44,16.10
2012,03,11,05,45,14.50
2012,03,11,05,46,9.60
2012,03,11,05,47,14.50
2012,03,11,05,48,6.40
2012,03,11,05,49,14.50
2012,03,11,05,50,6.40
2012,03,11,05,51,8.10
2012,03,11,05,52,16.10
2012,03,11,05,53,16.10
2012,03,11,05,54,16.10
2012,03,11,05,55,14.50
2012,03,11,05,56,11.30
2012,03,11,05,57,14.50
2012,03,11,05,58,14.50
2012,03,11,05,59,17.70
2012,03,11,06,00,16.10
2012,03,11,06,01,14.50
2012,03,11,06,02,14.50
2012,03,11,06,03,6.40
2012,03,11,06,04,11.30
2012,03,11,06,05,11.30
2012,03,11,06,06,9.60
2012,03,11,06,07,14.50
2012,03,11,06,08,9.60
2012,03,11,06,09,6.40
2012,03,11,06,10,20.90
2012,03,11,06,11,12.90
2012,03,11,06,12,11.30
2012,03,11,06,13,14.50
2012,03,11,06,14,9.60
2012,03,11,06,15,17.70
2012,03,11,06,16,8.10
2012,03,11,06,17,6.40
2012,03,11,06,18,9.60
2012,03,11,06,19,8.10
2012,03,11,06,20,8.10
2012,03,11,06,21,14.50
2012,03,11,06,22,11.30
2012,03,11,06,23,16.10
2012,03,11,06,24,17.70
2012,03,11,06,25,14.50
2012,03,11,06,26,16.10
2012,03,11,06,27,14.50
2012,03,11,06,28,14.50
2012,03,11,06,29,9.60
2012,03,11,06,30,16.10
2012,03,11,06,31,8.10
2012,03,11,06,32,16.10
2012,03,11,06,33,19.30
2012,03,11,06,34,16.10
2012,03,11,06,35,19.30
2012,03,11,06,36,14.50
2012,03,11,06,37,9.60
2012,03,11,06,38,11.30
2012,03,11,06,39,9.60
2012,03,11,06,40,8.10
2012,03,11,06,41,11.30
2012,03,11,06,42,6.40
2012,03,11,06,43,9.60
2012,03,11,06,44,12.90
2012,03,11,06,45,9.60
2012,03,11,06,46,20.90
2012,03,11,06,47,11.30
2012,03,11,06,48,16.10
2012,03,11,06,49,11.30
2012,03,11,06,50,19.30
2012,03,11,06,51,11.30
2012,03,11,06,52,19.30
2012,03,11,06,53,14.50
2012,03,11,06,54,19.30
2012,03,11,06,55,11.30
2012,03,11,06,56,17.70
2012,03,11,06,57,14.50
2012,03,11,06,58,11.30
2012,03,11,06,59,19.30
2012,03,11,07,00,16.10
2012,03,11,07,01,12.90
2012,03,11,07,02,17.70
2012,03,11,07,03,11.30
2012,03,11,07,04,11.30
2012,03,11,07,05,14.50
2012,03,11,07,06,17.70
2012,03,11,07,07,8.10
2012,03,11,07,08,17.70
2012,03,11,07,09,6.40
2012,03,11,07,10,14.50
2012,03,11,07,11,16.10
2012,03,11,07,12,17.70
2012,03,11,07,13,8.10
2012,03,11,07,14,11.30
2012,03,11,07,15,14.50
2012,03,11,07,16,17.70
2012,03,11,07,17,22.50
2012,03,11,07,18,16.10
2012,03,11,07,19,11.30
2012,03,11,07,20,11.30
2012,03,11,07,21,16.10
2012,03,11,07,22,14.50
2012,03,11,07,23,12.90
2012,03,11,07,24,16.10
2012,03,11,07,25,17.70
2012,03,11,07,26,16.10
2012,03,11,07,27,16.10
2012,03,11,07,28,17.70
2012,03,11,07,29,14.50
2012,03,11,07,30,14.50
2012,03,11,07,31,22.50
2012,03,11,07,32,16.10
2012,03,11,07,33,9.60
2012,03,11,07,34,17.70
2012,03,11,07,35,19.30
2012,03,11,07,36,19.30
2012,03,11,07,37,20.90
2012,03,11,07,38,17.70
2012,03,11,07,39,19.30
2012,03,11,07,40,22.50
2012,03,11,07,41,16.10
2012,03,11,07,42,9.60
2012,03,11,07,43,16.10
2012,03,11,07,44,19.30
2012,03,11,07,45,20.90
2012,03,11,07,46,17.70
2012,03,11,07,47,11.30
2012,03,11,07,48,20.90
2012,03,11,07,49,19.30
2012,03,11,07,50,20.90
2012,03,11,07,51,14.50
2012,03,11,07,52,17.70
2012,03,11,07,53,17.70
2012,03,11,07,54,14.50
2012,03,11,07,55,19.30
2012,03,11,07,56,9.60
2012,03,11,07,57,11.30
2012,03,11,07,58,11.30
2012,03,11,07,59,16.10
2012,03,11,08,00,16.10
2012,03,11,08,01,8.10
2012,03,11,08,02,9.60
2012,03,11,08,03,8.10
2012,03,11,08,04,14.50
2012,03,11,08,05,8.10
2012,03,11,08,06,8.10
2012,03,11,08,07,17.70
2012,03,11,08,08,12.90
2012,03,11,08,09,8.10
2012,03,11,08,10,8.10
2012,03,11,08,11,22.50
2012,03,11,08,12,16.10
2012,03,11,08,13,20.90
2012,03,11,08,14,11.30
2012,03,11,08,15,12.90
2012,03,11,08,16,16.10
2012,03,11,08,17,9.60
2012,03,11,08,18,17.70
2012,03,11,08,19,19.30
2012,03,11,08,20,20.90
2012,03,11,08,21,19.30
2012,03,11,08,22,9.60
2012,03,11,08,23,4.80
2012,03,11,08,24,11.30
2012,03,11,08,25,19.30
2012,03,11,08,26,12.90
2012,03,11,08,27,11.30
2012,03,11,08,28,11.30
2012,03,11,08,29,11.30
2012,03,11,08,30,11.30
2012,03,11,08,31,20.90
2012,03,11,08,32,14.50
2012,03,11,08,33,17.70
2012,03,11,08,34,11.30
2012,03,11,08,35,6.40
2012,03,11,08,36,11.30
2012,03,11,08,37,14.50
2012,03,11,08,38,11.30
2012,03,11,08,39,24.20
2012,03,11,08,40,14.50
2012,03,11,08,41,19.30
2012,03,11,08,42,19.30
2012,03,11,08,43,14.50
2012,03,11,08,44,27.40
2012,03,11,08,45,14.50
2012,03,11,08,46,19.30
2012,03,11,08,47,17.70
2012,03,11,08,48,24.20
2012,03,11,08,49,11.30
2012,03,11,08,50,14.50
2012,03,11,08,51,14.50
2012,03,11,08,52,14.50
2012,03,11,08,53,17.70
2012,03,11,08,54,12.90
2012,03,11,08,55,22.50
2012,03,11,08,56,24.20
2012,03,11,08,57,20.90
2012,03,11,08,58,25.70
2012,03,11,08,59,25.70
2012,03,11,09,00,20.90
2012,03,11,09,01,14.50
2012,03,11,09,02,9.60
2012,03,11,09,03,17.70
2012,03,11,09,04,30.60
2012,03,11,09,05,11.30
2012,03,11,09,06,20.90
2012,03,11,09,07,27.40
2012,03,11,09,08,27.40
2012,03,11,09,09,32.20
2012,03,11,09,10,24.20
2012,03,11,09,11,22.50
2012,03,11,09,12,20.90
2012,03,11,09,13,27.40
2012,03,11,09,14,30.60
2012,03,11,09,15,16.10
2012,03,11,09,16,19.30
2012,03,11,09,17,25.70
2012,03,11,09,18,32.20
2012,03,11,09,19,27.40
2012,03,11,09,20,25.70
2012,03,11,09,21,30.60
2012,03,11,09,22,22.50
2012,03,11,09,23,24.20
2012,03,11,09,24,27.40
2012,03,11,09,25,22.50
2012,03,11,09,26,24.20
2012,03,11,09,27,22.50
2012,03,11,09,28,19.30
2012,03,11,09,29,24.20
2012,03,11,09,30,22.50
2012,03,11,09,31,22.50
2012,03,11,09,32,17.70
2012,03,11,09,33,20.90
2012,03,11,09,34,25.70
2012,03,11,09,35,20.90
2012,03,11,09,36,25.70
2012,03,11,09,37,17.70
2012,03,11,09,38,20.90
2012,03,11,09,39,22.50
2012,03,11,09,40,25.70
2012,03,11,09,41,24.20
2012,03,11,09,42,30.60
2012,03,11,09,43,20.90
2012,03,11,09,44,27.40
2012,03,11,09,45,17.70
2012,03,11,09,46,19.30
2012,03,11,09,47,20.90
2012,03,11,09,48,27.40
2012,03,11,09,49,17.70
2012,03,11,09,50,20.90
2012,03,11,09,51,25.70
2012,03,11,09,52,17.70
2012,03,11,09,53,17.70
2012,03,11,09,54,12.90
2012,03,11,09,55,24.20
2012,03,11,09,56,16.10
2012,03,11,09,57,19.30
2012,03,11,09,58,22.50
2012,03,11,09,59,19.30
2012,03,11,10,00,19.30
2012,03,11,10,01,17.70
2012,03,11,10,02,24.20
2012,03,11,10,03,24.20
2012,03,11,10,04,20.90
2012,03,11,10,05,20.90
2012,03,11,10,06,24.20
2012,03,11,10,07,27.40
2012,03,11,10,08,27.40
2012,03,11,10,09,30.60
2012,03,11,10,10,19.30
2012,03,11,10,11,27.40
2012,03,11,10,12,29.00
2012,03,11,10,13,20.90
2012,03,11,10,14,30.60
2012,03,11,10,15,27.40
2012,03,11,10,16,25.70
2012,03,11,10,17,27.40
2012,03,11,10,18,20.90
2012,03,11,10,19,24.20
2012,03,11,10,20,22.50
2012,03,11,10,21,41.80
2012,03,11,10,22,25.70
2012,03,11,10,23,33.80
2012,03,11,10,24,24.20
2012,03,11,10,25,27.40
2012,03,11,10,26,30.60
2012,03,11,10,27,33.80
2012,03,11,10,28,30.60
2012,03,11,10,29,37.00
2012,03,11,10,30,43.50
2012,03,11,10,31,33.80
2012,03,11,10,32,24.20
2012,03,11,10,33,33.80
2012,03,11,10,34,19.30
2012,03,11,10,35,25.70
2012,03,11,10,36,40.20
2012,03,11,10,37,27.40
2012,03,11,10,38,17.70
2012,03,11,10,39,14.50
2012,03,11,10,40,37.00
2012,03,11,10,41,27.40
2012,03,11,10,42,9.60
2012,03,11,10,43,24.20
2012,03,11,10,44,24.20
2012,03,11,10,45,37.00
2012,03,11,10,46,30.60
2012,03,11,10,47,32.20
2012,03,11,10,48,29.00
2012,03,11,10,49,24.20
2012,03,11,10,50,30.60
2012,03,11,10,51,30.60
2012,03,11,10,52,27.40
2012,03,11,10,53,22.50
2012,03,11,10,54,16.10
2012,03,11,10,55,30.60
2012,03,11,10,56,33.80
2012,03,11,10,57,32.20
2012,03,11,10,58,19.30
2012,03,11,10,59,32.20
2012,03,11,11,00,32.20
2012,03,11,11,01,29.00
2012,03,11,11,02,27.40
2012,03,11,11,03,27.40
2012,03,11,11,04,35.40
2012,03,11,11,05,25.70
2012,03,11,11,06,25.70
2012,03,11,11,07,35.40
2012,03,11,11,08,33.80
2012,03,11,11,09,24.20
2012,03,11,11,10,25.70
2012,03,11,11,11,20.90
2012,03,11,11,12,25.70
2012,03,11,11,13,22.50
2012,03,11,11,14,29.00
2012,03,11,11,15,20.90
2012,03,11,11,16,29.00
2012,03,11,11,17,33.80
2012,03,11,11,18,37.00
2012,03,11,11,19,27.40
2012,03,11,11,20,30.60
2012,03,11,11,21,32.20
2012,03,11,11,22,30.60
2012,03,11,11,23,43.50
2012,03,11,11,24,40.20
2012,03,11,11,25,37.00
2012,03,11,11,26,22.50
2012,03,11,11,27,17.70
2012,03,11,11,28,30.60
2012,03,11,11,29,27.40
2012,03,11,11,30,35.40
2012,03,11,11,31,24.20
2012,03,11,11,32,14.50
2012,03,11,11,33,20.90
2012,03,11,11,34,22.50
2012,03,11,11,35,24.20
2012,03,11,11,36,29.00
2012,03,11,11,37,30.60
2012,03,11,11,38,22.50
2012,03,11,11,39,32.20
2012,03,11,11,40,25.70
2012,03,11,11,41,25.70
2012,03,11,11,42,22.50
2012,03,11,11,43,24.20
2012,03,11,11,44,20.90
2012,03,11,11,45,24.20
2012,03,11,11,46,25.70
2012,03,11,11,47,30.60
2012,03,11,11,48,27.40
2012,03,11,11,49,22.50
2012,03,11,11,50,32.20
2012,03,11,11,51,33.80
2012,03,11,11,52,32.20
2012,03,11,11,53,45.10
2012,03,11,11,54,25.70
2012,03,11,11,55,20.90
2012,03,11,11,56,41.80
2012,03,11,11,57,32.20
2012,03,11,11,58,40.20
2012,03,11,11,59,25.70
2012,03,11,12,00,16.10
2012,03,11,12,01,19.30
2012,03,11,12,02,25.70
2012,03,11,12,03,25.70
2012,03,11,12,04,49.90
2012,03,11,12,05,40.20
2012,03,11,12,06,19.30
2012,03,11,12,07,29.00
2012,03,11,12,08,30.60
2012,03,11,12,09,30.60
2012,03,11,12,10,41.80
2012,03,11,12,11,38.60
2012,03,11,12,12,40.20
2012,03,11,12,13,33.80
2012,03,11,12,14,38.60
2012,03,11,12,15,29.00
2012,03,11,12,16,24.20
2012,03,11,12,17,11.30
2012,03,11,12,18,32.20
2012,03,11,12,19,27.40
2012,03,11,12,20,37.00
2012,03,11,12,21,40.20
2012,03,11,12,22,41.80
2012,03,11,12,23,32.20
2012,03,11,12,24,24.20
2012,03,11,12,25,22.50
2012,03,11,12,26,25.70
2012,03,11,12,27,35.40
2012,03,11,12,28,24.20
2012,03,11,12,29,33.80
2012,03,11,12,30,27.40
2012,03,11,12,31,29.00
2012,03,11,12,32,37.00
2012,03,11,12,33,30.60
2012,03,11,12,34,29.00
2012,03,11,12,35,27.40
2012,03,11,12,36,29.00
2012,03,11,12,37,30.60
2012,03,11,12,38,29.00
2012,03,11,12,39,27.40
2012,03,11,12,40,27.40
2012,03,11,12,41,19.30
2012,03,11,12,42,20.90
2012,03,11,12,43,24.20
2012,03,11,12,44,30.60
2012,03,11,12,45,29.00
2012,03,11,12,46,30.60
2012,03,11,12,47,25.70
2012,03,11,12,48,19.30
2012,03,11,12,49,19.30
2012,03,11,12,50,25.70
2012,03,11,12,51,20.90
2012,03,11,12,52,35.40
2012,03,11,12,53,29.00
2012,03,11,12,54,20.90
2012,03,11,12,55,37.00
2012,03,11,12,56,37.00
2012,03,11,12,57,30.60
2012,03,11,12,58,25.70
2012,03,11,12,59,27.40
2012,03,11,13,00,32.20
2012,03,11,13,01,30.60
2012,03,11,13,02,29.00
2012,03,11,13,03,24.20
2012,03,11,13,04,38.60
2012,03,11,13,05,25.70
2012,03,11,13,06,16.10
2012,03,11,13,07,30.60
2012,03,11,13,08,30.60
2012,03,11,13,09,29.00
2012,03,11,13,10,27.40
2012,03,11,13,11,30.60
2012,03,11,13,12,29.00
2012,03,11,13,13,22.50
2012,03,11,13,14,20.90
2012,03,11,13,15,29.00
2012,03,11,13,16,27.40
2012,03,11,13,17,27.40
2012,03,11,13,18,35.40
2012,03,11,13,19,25.70
2012,03,11,13,20,27.40
2012,03,11,13,21,32.20
2012,03,11,13,22,27.40
2012,03,11,13,23,19.30
2012,03,11,13,24,17.70
2012,03,11,13,25,24.20
2012,03,11,13,26,25.70
2012,03,11,13,27,25.70
2012,03,11,13,28,40.20
2012,03,11,13,29,37.00
2012,03,11,13,30,30.60
2012,03,11,13,31,35.40
2012,03,11,13,32,32.20
2012,03,11,13,33,24.20
2012,03,11,13,34,29.00
2012,03,11,13,35,20.90
2012,03,11,13,36,25.70
2012,03,11,13,37,37.00
2012,03,11,13,38,24.20
2012,03,11,13,39,30.60
2012,03,11,13,40,27.40
2012,03,11,13,41,22.50
2012,03,11,13,42,29.00
2012,03,11,13,43,25.70
2012,03,11,13,44,25.70
2012,03,11,13,45,24.20
2012,03,11,13,46,25.70
2012,03,11,13,47,25.70
2012,03,11,13,48,35.40
2012,03,11,13,49,27.40
2012,03,11,13,50,27.40
2012,03,11,13,51,27.40
2012,03,11,13,52,27.40
2012,03,11,13,53,27.40
2012,03,11,13,54,35.40
2012,03,11,13,55,30.60
2012,03,11,13,56,22.50
2012,03,11,13,57,32.20
2012,03,11,13,58,35.40
2012,03,11,13,59,32.20
2012,03,11,14,00,22.50
2012,03,11,14,01,25.70
2012,03,11,14,02,25.70
2012,03,11,14,03,45.10
2012,03,11,14,04,33.80
2012,03,11,14,05,33.80
2012,03,11,14,06,29.00
2012,03,11,14,07,24.20
2012,03,11,14,08,25.70
2012,03,11,14,09,22.50
2012,03,11,14,10,24.20
2012,03,11,14,11,43.50
2012,03,11,14,12,30.60
2012,03,11,14,13,32.20
2012,03,11,14,14,27.40
2012,03,11,14,15,20.90
2012,03,11,14,16,25.70
2012,03,11,14,17,29.00
2012,03,11,14,18,25.70
2012,03,11,14,19,37.00
2012,03,11,14,20,38.60
2012,03,11,14,21,33.80
2012,03,11,14,22,20.90
2012,03,11,14,23,33.80
2012,03,11,14,24,25.70
2012,03,11,14,25,27.40
2012,03,11,14,26,20.90
2012,03,11,14,27,24.20
2012,03,11,14,28,32.20
2012,03,11,14,29,27.40
2012,03,11,14,30,37.00
2012,03,11,14,31,33.80
2012,03,11,14,32,40.20
2012,03,11,14,33,32.20
2012,03,11,14,34,27.40
2012,03,11,14,35,25.70
2012,03,11,14,36,24.20
2012,03,11,14,37,25.70
2012,03,11,14,38,27.40
2012,03,11,14,39,40.20
2012,03,11,14,40,38.60
2012,03,11,14,41,27.40
2012,03,11,14,42,30.60
2012,03,11,14,43,27.40
2012,03,11,14,44,25.70
2012,03,11,14,45,29.00
2012,03,11,14,46,22.50
2012,03,11,14,47,25.70
2012,03,11,14,48,35.40
2012,03,11,14,49,27.40
2012,03,11,14,50,27.40
2012,03,11,14,51,17.70
2012,03,11,14,52,29.00
2012,03,11,14,53,27.40
2012,03,11,14,54,24.20
2012,03,11,14,55,29.00
2012,03,11,14,56,30.60
2012,03,11,14,57,30.60
2012,03,11,14,58,24.20
2012,03,11,14,59,33.80
2012,03,11,15,00,37.00
2012,03,11,15,01,40.20
2012,03,11,15,02,29.00
2012,03,11,15,03,33.80
2012,03,11,15,04,29.00
2012,03,11,15,05,29.00
2012,03,11,15,06,37.00
2012,03,11,15,07,35.40
2012,03,11,15,08,27.40
2012,03,11,15,09,27.40
2012,03,11,15,10,29.00
2012,03,11,15,11,24.20
2012,03,11,15,12,24.20
2012,03,11,15,13,12.90
2012,03,11,15,14,24.20
2012,03,11,15,15,27.40
2012,03,11,15,16,24.20
2012,03,11,15,17,24.20
2012,03,11,15,18,17.70
2012,03,11,15,19,24.20
2012,03,11,15,20,20.90
2012,03,11,15,21,11.30
2012,03,11,15,22,19.30
2012,03,11,15,23,24.20
2012,03,11,15,24,22.50
2012,03,11,15,25,19.30
2012,03,11,15,26,22.50
2012,03,11,15,27,16.10
2012,03,11,15,28,25.70
2012,03,11,15,29,25.70
2012,03,11,15,30,22.50
2012,03,11,15,31,22.50
2012,03,11,15,32,24.20
2012,03,11,15,33,24.20
2012,03,11,15,34,20.90
2012,03,11,15,35,14.50
2012,03,11,15,36,24.20
2012,03,11,15,37,17.70
2012,03,11,15,38,27.40
2012,03,11,15,39,32.20
2012,03,11,15,40,24.20
2012,03,11,15,41,14.50
2012,03,11,15,42,20.90
2012,03,11,15,43,30.60
2012,03,11,15,44,25.70
2012,03,11,15,45,20.90
2012,03,11,15,46,25.70
2012,03,11,15,47,24.20
2012,03,11,15,48,25.70
2012,03,11,15,49,29.00
2012,03,11,15,50,24.20
2012,03,11,15,51,17.70
2012,03,11,15,52,9.60
2012,03,11,15,53,16.10
2012,03,11,15,54,17.70
2012,03,11,15,55,20.90
2012,03,11,15,56,27.40
2012,03,11,15,57,17.70
2012,03,11,15,58,16.10
2012,03,11,15,59,9.60
2012,03,11,16,00,19.30
2012,03,11,16,01,19.30
2012,03,11,16,02,20.90
2012,03,11,16,03,20.90
2012,03,11,16,04,20.90
2012,03,11,16,05,27.40
2012,03,11,16,06,24.20
2012,03,11,16,07,22.50
2012,03,11,16,08,17.70
2012,03,11,16,09,14.50
2012,03,11,16,10,19.30
2012,03,11,16,11,22.50
2012,03,11,16,12,17.70
2012,03,11,16,13,16.10
2012,03,11,16,14,16.10
2012,03,11,16,15,16.10
2012,03,11,16,16,14.50
2012,03,11,16,17,24.20
2012,03,11,16,18,25.70
2012,03,11,16,19,11.30
2012,03,11,16,20,14.50
2012,03,11,16,21,20.90
2012,03,11,16,22,19.30
2012,03,11,16,23,22.50
2012,03,11,16,24,16.10
2012,03,11,16,25,19.30
2012,03,11,16,26,17.70
2012,03,11,16,27,22.50
2012,03,11,16,28,24.20
2012,03,11,16,29,22.50
2012,03,11,16,30,14.50
2012,03,11,16,31,22.50
2012,03,11,16,32,19.30
2012,03,11,16,33,22.50
2012,03,11,16,34,22.50
2012,03,11,16,35,29.00
2012,03,11,16,36,22.50
2012,03,11,16,37,24.20
2012,03,11,16,38,19.30
2012,03,11,16,39,17.70
2012,03,11,16,40,16.10
2012,03,11,16,41,24.20
2012,03,11,16,42,22.50
2012,03,11,16,43,20.90
2012,03,11,16,44,11.30
2012,03,11,16,45,11.30
2012,03,11,16,46,24.20
2012,03,11,16,47,22.50
2012,03,11,16,48,17.70
2012,03,11,16,49,9.60
2012,03,11,16,50,16.10
2012,03,11,16,51,9.60
2012,03,11,16,52,11.30
2012,03,11,16,53,12.90
2012,03,11,16,54,14.50
2012,03,11,16,55,16.10
2012,03,11,16,56,14.50
2012,03,11,16,57,22.50
2012,03,11,16,58,11.30
2012,03,11,16,59,14.50
2012,03,11,17,00,17.70
2012,03,11,17,01,16.10
2012,03,11,17,02,11.30
2012,03,11,17,03,22.50
2012,03,11,17,04,20.90
2012,03,11,17,05,19.30
2012,03,11,17,06,19.30
2012,03,11,17,07,16.10
2012,03,11,17,08,16.10
2012,03,11,17,09,22.50
2012,03,11,17,10,30.60
2012,03,11,17,11,17.70
2012,03,11,17,12,16.10
2012,03,11,17,13,19.30
2012,03,11,17,14,25.70
2012,03,11,17,15,27.40
2012,03,11,17,16,27.40
2012,03,11,17,17,20.90
2012,03,11,17,18,22.50
2012,03,11,17,19,11.30
2012,03,11,17,20,20.90
2012,03,11,17,21,9.60
2012,03,11,17,22,14.50
2012,03,11,17,23,24.20
2012,03,11,17,24,19.30
2012,03,11,17,25,17.70
2012,03,11,17,26,19.30
2012,03,11,17,27,16.10
2012,03,11,17,28,24.20
2012,03,11,17,29,19.30
2012,03,11,17,30,14.50
2012,03,11,17,31,24.20
2012,03,11,17,32,19.30
2012,03,11,17,33,17.70
2012,03,11,17,34,27.40
2012,03,11,17,35,27.40
2012,03,11,17,36,16.10
2012,03,11,17,37,20.90
2012,03,11,17,38,14.50
2012,03,11,17,39,25.70
2012,03,11,17,40,16.10
2012,03,11,17,41,20.90
2012,03,11,17,42,22.50
2012,03,11,17,43,24.20
2012,03,11,17,44,32.20
2012,03,11,17,45,30.60
2012,03,11,17,46,20.90
2012,03,11,17,47,25.70
2012,03,11,17,48,25.70
2012,03,11,17,49,20.90
2012,03,11,17,50,20.90
2012,03,11,17,51,20.90
2012,03,11,17,52,16.10
2012,03,11,17,53,17.70
2012,03,11,17,54,20.90
2012,03,11,17,55,17.70
2012,03,11,17,56,22.50
2012,03,11,17,57,24.20
2012,03,11,17,58,8.10
2012,03,11,17,59,16.10
2012,03,11,18,00,16.10
2012,03,11,18,01,17.70
2012,03,11,18,02,9.60
2012,03,11,18,03,16.10
2012,03,11,18,04,12.90
2012,03,11,18,05,14.50
2012,03,11,18,06,11.30
2012,03,11,18,07,14.50
2012,03,11,18,08,16.10
2012,03,11,18,09,14.50
2012,03,11,18,10,14.50
2012,03,11,18,11,8.10
2012,03,11,18,12,6.40
2012,03,11,18,13,17.70
2012,03,11,18,14,16.10
2012,03,11,18,15,17.70
2012,03,11,18,16,16.10
2012,03,11,18,17,24.20
2012,03,11,18,18,17.70
2012,03,11,18,19,20.90
2012,03,11,18,20,11.30
2012,03,11,18,21,3.20
2012,03,11,18,22,11.30
2012,03,11,18,23,16.10
2012,03,11,18,24,22.50
2012,03,11,18,25,17.70
2012,03,11,18,26,16.10
2012,03,11,18,27,16.10
2012,03,11,18,28,17.70
2012,03,11,18,29,19.30
2012,03,11,18,30,17.70
2012,03,11,18,31,19.30
2012,03,11,18,32,17.70
2012,03,11,18,33,27.40
2012,03,11,18,34,11.30
2012,03,11,18,35,20.90
2012,03,11,18,36,16.10
2012,03,11,18,37,16.10
2012,03,11,18,38,19.30
2012,03,11,18,39,17.70
2012,03,11,18,40,19.30
2012,03,11,18,41,12.90
2012,03,11,18,42,19.30
2012,03,11,18,43,17.70
2012,03,11,18,44,14.50
2012,03,11,18,45,9.60
2012,03,11,18,46,8.10
2012,03,11,18,47,9.60
2012,03,11,18,48,12.90
2012,03,11,18,49,4.80
2012,03,11,18,50,4.80
2012,03,11,18,51,8.10
2012,03,11,18,52,6.40
2012,03,11,18,53,11.30
2012,03,11,18,54,12.90
2012,03,11,18,55,8.10
2012,03,11,18,56,8.10
2012,03,11,18,57,17.70
2012,03,11,18,58,12.90
2012,03,11,18,59,9.60
2012,03,11,19,00,6.40
2012,03,11,19,01,4.80
2012,03,11,19,02,9.60
2012,03,11,19,03,9.60
2012,03,11,19,04,9.60
2012,03,11,19,05,8.10
2012,03,11,19,06,11.30
2012,03,11,19,07,12.90
2012,03,11,19,08,20.90
2012,03,11,19,09,16.10
2012,03,11,19,10,17.70
2012,03,11,19,11,14.50
2012,03,11,19,12,11.30
2012,03,11,19,13,6.40
2012,03,11,19,14,6.40
2012,03,11,19,15,3.20
2012,03,11,19,16,9.60
2012,03,11,19,17,6.40
2012,03,11,19,18,11.30
2012,03,11,19,19,17.70
2012,03,11,19,20,19.30
2012,03,11,19,21,6.40
2012,03,11,19,22,8.10
2012,03,11,19,23,6.40
2012,03,11,19,24,6.40
2012,03,11,19,25,4.80
2012,03,11,19,26,8.10
2012,03,11,19,27,14.50
2012,03,11,19,28,11.30
2012,03,11,19,29,8.10
2012,03,11,19,30,4.80
2012,03,11,19,31,11.30
2012,03,11,19,32,14.50
2012,03,11,19,33,11.30
2012,03,11,19,34,9.60
2012,03,11,19,35,16.10
2012,03,11,19,36,16.10
2012,03,11,19,37,16.10
2012,03,11,19,38,14.50
2012,03,11,19,39,8.10
2012,03,11,19,40,11.30
2012,03,11,19,41,17.70
2012,03,11,19,42,11.30
2012,03,11,19,43,6.40
2012,03,11,19,44,8.10
2012,03,11,19,45,11.30
2012,03,11,19,46,6.40
2012,03,11,19,47,4.80
2012,03,11,19,48,3.20
2012,03,11,19,49,3.20
2012,03,11,19,50,3.20
2012,03,11,19,51,3.20
2012,03,11,19,52,3.20
2012,03,11,19,53,3.20
2012,03,11,19,54,3.20
2012,03,11,19,55,4.80
2012,03,11,19,56,6.40
2012,03,11,19,57,4.80
2012,03,11,19,58,8.10
2012,03,11,19,59,4.80
2012,03,11,20,00,4.80
2012,03,11,20,01,6.40
2012,03,11,20,02,6.40
2012,03,11,20,03,6.40
2012,03,11,20,04,4.80
2012,03,11,20,05,4.80
2012,03,11,20,06,4.80
2012,03,11,20,07,6.40
2012,03,11,20,08,6.40
2012,03,11,20,09,1.60
2012,03,11,20,10,4.80
2012,03,11,20,11,8.10
2012,03,11,20,12,6.40
2012,03,11,20,13,4.80
2012,03,11,20,14,9.60
2012,03,11,20,15,4.80
2012,03,11,20,16,3.20